Weather History for Asheville, NC

Change the Weather History Date:

Monday, May 20, 2013

  Actual Average Record
Temperature  
Mean Temperature 71 °F 64 °F  
Max Temperature 81 °F 76 °F 91 °F (1941)
Min Temperature 61 °F 53 °F 36 °F (2002)
Degree Days  
Heating Degree Days 0 3  
Month to date heating degree days 122 87  
Since 1 July heating degree days 4060 4159  
Cooling Degree Days 6 2  
Month to date cooling degree days 13 24  
Year to date cooling degree days 18 32  
Growing Degree Days 20 (Base 50)    
Moisture  
Dew Point 62 °F    
Average Humidity 77    
Maximum Humidity 100    
Minimum Humidity 54    
Precipitation  
Precipitation 0.00 in 0.12 in 2.58 in (1909)
Month to date precipitation 6.94 2.31  
Year to date precipitation 28.28 16.90  
Snow  
Snow 0.00 in 0.00 in 0.00 in ()
Month to date snowfall 0.0 0.0  
Since 1 July snowfall 0.5 9.9  
Snow Depth 0.00 in    
Sea Level Pressure  
Sea Level Pressure 30.10 in    
Wind  
Wind Speed 4 mph (SSW)    
Max Wind Speed 13 mph    
Max Gust Speed 17 mph    
Visibility 6 miles    
Events Fog    
T = Trace of Precipitation, MM = Missing Value Source: NWS Daily Summary

Daily Weather History Graph

Daily Weather History Graph

Search for Another Location

Airport:

Trip Planner

Search our weather history database for the weather conditions in past years. The results will help you decide how hot, cold, wet, or windy it might be!

Date:

Astronomy

May. 20, 2013 Rise Set
Actual Time 6:21 AM EDT 8:31 PM EDT
Civil Twilight 5:53 AM EDT 9:00 PM EDT
Nautical Twilight 5:18 AM EDT 9:35 PM EDT
Astronomical Twilight 4:40 AM EDT 10:13 PM EDT
Moon 3:47 PM EDT (5/20) 3:05 AM EDT (5/20)
Length of Visible Light 15h 07m
Length of Day
14h 09m
Waxing Gibbous, 75% of the Moon is Illuminated
May 20
Waxing Gibbous
May 25
Full
May 31
Last Quarter
Jun 8
New
Jun 16
First Quarter

Hourly Weather History & Observations

Time (EDT) Temp. Heat Index Dew Point Humidity Pressure Visibility Wind Dir Wind Speed Gust Speed Precip Events Conditions
12:34 AM 60.8 °F - 60.8 °F 100% 30.11 in 6.0 mi Calm Calm - N/A   Scattered Clouds
12:40 AM 60.8 °F - 60.8 °F 100% 30.11 in 1.8 mi Calm Calm - N/A   Mostly Cloudy
12:49 AM 60.8 °F - 60.8 °F 100% 30.12 in 2.0 mi Calm Calm - N/A   Mostly Cloudy
12:54 AM 61.0 °F - 61.0 °F 100% 30.06 in 4.0 mi Calm Calm - N/A   Overcast
1:07 AM 62.6 °F - 60.8 °F 94% 30.13 in 5.0 mi SW 3.5 mph - N/A   Overcast
1:21 AM 62.6 °F - 60.8 °F 94% 30.13 in 6.0 mi Calm Calm - N/A   Overcast
1:46 AM 62.6 °F - 62.6 °F 100% 30.13 in 5.0 mi Calm Calm - N/A   Overcast
1:54 AM 62.1 °F - 62.1 °F 100% 30.07 in 3.0 mi Calm Calm - N/A   Overcast
2:05 AM 62.6 °F - 62.6 °F 100% 30.12 in 1.8 mi Calm Calm - N/A   Overcast
2:18 AM 62.6 °F - 62.6 °F 100% 30.11 in 0.8 mi Calm Calm - N/A   Overcast
2:50 AM 62.6 °F - 62.6 °F 100% 30.12 in 0.8 mi Calm Calm - N/A   Mist
2:54 AM 62.1 °F - 62.1 °F 100% 30.06 in 0.8 mi Calm Calm - N/A   Mist
3:10 AM 62.6 °F - 62.6 °F 100% 30.12 in 0.2 mi South 3.5 mph - N/A Fog Fog
3:38 AM 62.6 °F - 62.6 °F 100% 30.13 in 0.5 mi SSW 3.5 mph - N/A Fog Fog
3:54 AM 62.6 °F - 60.8 °F 94% 30.12 in 1.2 mi South 3.5 mph - N/A   Overcast
3:59 AM 62.6 °F - 60.8 °F 94% 30.13 in 2.0 mi SSW 3.5 mph - N/A   Overcast
4:10 AM 62.6 °F - 60.8 °F 94% 30.13 in 5.0 mi Calm Calm - N/A   Overcast
4:54 AM 61.0 °F - 61.0 °F 100% 30.06 in 6.0 mi Calm Calm - N/A   Overcast
5:51 AM 60.8 °F - 60.8 °F 100% 30.12 in 2.0 mi Calm Calm - N/A   Overcast
5:54 AM 61.0 °F - 61.0 °F 100% 30.06 in 2.0 mi Calm Calm - N/A   Overcast
6:13 AM 60.8 °F - 60.8 °F 100% 30.12 in 3.0 mi Calm Calm - N/A   Overcast
6:28 AM 60.8 °F - 60.8 °F 100% 30.13 in 2.5 mi Calm Calm - N/A   Overcast
6:54 AM 61.0 °F - 61.0 °F 100% 30.08 in 2.5 mi NNW 4.6 mph - N/A   Overcast
7:16 AM 62.6 °F - 60.8 °F 94% 30.14 in 2.5 mi Calm Calm - N/A   Overcast
7:20 AM 62.6 °F - 60.8 °F 94% 30.15 in 3.0 mi Calm Calm - N/A   Overcast
7:27 AM 62.6 °F - 60.8 °F 94% 30.15 in 3.0 mi Calm Calm - N/A   Overcast
7:54 AM 62.6 °F - 60.8 °F 94% 30.15 in 3.0 mi NNW 3.5 mph - N/A   Mostly Cloudy
8:54 AM 66.0 °F - 61.0 °F 84% 30.09 in 10.0 mi Calm Calm - N/A   Mostly Cloudy
9:15 AM 66.2 °F - 62.6 °F 88% 30.17 in 9.0 mi WNW 3.5 mph - N/A   Scattered Clouds
9:44 AM 69.8 °F - 62.6 °F 78% 30.17 in 10.0 mi Calm Calm - N/A   Mostly Cloudy
9:54 AM 69.8 °F - 62.6 °F 78% 30.17 in 10.0 mi Calm Calm - N/A   Mostly Cloudy
10:15 AM 69.8 °F - 62.6 °F 78% 30.17 in 10.0 mi Variable 4.6 mph - N/A   Scattered Clouds
10:54 AM 71.1 °F - 63.0 °F 75% 30.11 in 10.0 mi Variable 3.5 mph - N/A   Clear
11:54 AM 73.9 °F - 62.1 °F 66% 30.10 in 10.0 mi South 3.5 mph - N/A   Mostly Cloudy
12:54 PM 79.0 °F - 61.0 °F 54% 30.08 in 10.0 mi NW 4.6 mph - 0.01 in   Clear
1:54 PM 80.1 °F 81.2 °F 62.1 °F 54% 30.06 in 10.0 mi NNW 6.9 mph - N/A   Clear
2:54 PM 79.0 °F - 63.0 °F 58% 30.05 in 10.0 mi Variable 4.6 mph - N/A   Scattered Clouds
3:54 PM 77.0 °F - 63.0 °F 62% 30.04 in 10.0 mi South 6.9 mph - N/A   Mostly Cloudy
4:54 PM 73.9 °F - 66.0 °F 76% 30.05 in 10.0 mi SSW 9.2 mph - N/A   Scattered Clouds
5:54 PM 73.0 °F - 64.9 °F 76% 30.05 in 10.0 mi South 9.2 mph - N/A   Clear
6:54 PM 72.0 °F - 64.9 °F 78% 30.04 in 10.0 mi SSE 10.4 mph - N/A   Clear
7:54 PM 70.0 °F - 63.0 °F 78% 30.03 in 10.0 mi SSE 6.9 mph - N/A   Clear
8:54 PM 68.0 °F - 62.1 °F 81% 30.04 in 10.0 mi SSE 6.9 mph - N/A   Clear
9:54 PM 66.2 °F - 62.6 °F 88% 30.11 in 10.0 mi SE 5.8 mph - N/A   Clear
10:54 PM 64.9 °F - 63.0 °F 93% 30.06 in 10.0 mi Calm Calm - N/A   Clear
11:54 PM 64.0 °F - 62.1 °F 93% 30.04 in 9.0 mi Calm Calm - N/A   Clear